Regional Weather Roundup
Issued by NWS

Home | Current Version | Previous Version | Text Only | Print | Product List | Glossary On
Versions: 1 2 3 4 5 6 7 8 9 10 11 12 13 14 15 16 17 18 19 20 21 22 23 24 25 26 27 28 29 30 31 32 33 34 35 36 37 38 39 40 41 42 43 44 45 46 47 48 49 50
000
ASUS45 KABQ 261710
RWRNM
NEW MEXICO REGIONAL WEATHER ROUNDUP
NATIONAL WEATHER SERVICE ALBUQUERQUE NM
1100 AM MDT SAT MAY 26 2018

NOTE: "FAIR" MEANS FEW OR NO CLOUDS BELOW 12,000 FEET AGL WITH NO
       SIGNIFICANT WEATHER OR OBSTRUCTIONS TO VISION.

      THIS PRODUCT IS RELEASED AS TWO VERSIONS.  ONE VERSION NEAR
      THE TOP OF THE HOUR CONTAINING PRELIMINARY DATA FROM ALBUQUERQUE
      AND OTHER STATIONS.  A FINAL VERSION WITH ADDITIONAL DATA IS
      ISSUED ABOUT 10 MINUTES AFTER THE HOUR.

NMZ501-503-504-510>518-261800-
NORTHWEST PLATEAU/NORTHCENTRAL MOUNTAINS

CITY           SKY/WX    TMP DP  RH WIND       PRES   REMARKS
FARMINGTON     FAIR      71  22  15 E9        30.04F
LOS ALAMOS     FAIR      69  17  13 E5        30.19S
SANTA FE       FAIR      76  18  11 N9        30.12F
TAOS           FAIR      71  15  11 SW5       30.20
ANGEL FIRE     FAIR      60  28  29 CALM      30.26F

$$
NMZ402-403-502-505>509-261800-
WESTCENTRAL MOUNTAINS/SOUTHWEST MOUNTAINS

CITY           SKY/WX    TMP DP  RH WIND       PRES   REMARKS
GALLUP         FAIR      69  26  20 VRB3      30.09F
GRANTS         FAIR      72  18  13 SE10      30.14F
SILVER CITY    FAIR      83  27  12 S7        30.07F

$$
NMZ407-409-411-412-261800-
SOUTHERN DESERTS

CITY           SKY/WX    TMP DP  RH WIND       PRES   REMARKS
DEMING         FAIR      84  28  13 S9        30.01S
LAS CRUCES     FAIR      89  20   8 S5        30.02F
ALAMOGORDO     FAIR      86  16   7 S12       30.00F
T OR C         FAIR      86  11   6 SE7       30.01F

$$
NMZ519>523-261800-
CENTRAL VALLEYS/CENTRAL HIGHLANDS

CITY           SKY/WX    TMP DP  RH WIND       PRES   REMARKS
ALBUQUERQUE    CLOUDY    75  23  14 N7        30.06F
DOUBLE EAGLE   CLOUDY    73  18  12 N7        30.10F
MORIARTY ARPT  FAIR      78  21  12 N6        30.13F
CLINES CORNERS FAIR      78  17  10 NW13G22   30.18S
BELEN          FAIR      78  16   9 E3        30.05F
SOCORRO        FAIR      79  17   9 NE3       30.03F

$$
NMZ524>526-539-540-261800-
SOUTHCENTRAL MOUNTAINS

CITY           SKY/WX    TMP DP  RH WIND       PRES   REMARKS
RUIDOSO        FAIR      81  16   9 E7        30.18F

$$
NMZ527>531-261800-
NORTHEAST HIGHLANDS/NORTHEAST PLAINS

CITY           SKY/WX    TMP DP  RH WIND       PRES   REMARKS
LAS VEGAS      FAIR      77  15   9 S9        30.14S
RATON          FAIR      77  30  17 CALM      30.08F
CLAYTON        FAIR      82  42  24 VRB7      29.99S

$$
NMZ532>537-261800-
EASTCENTRAL PLAINS

CITY           SKY/WX    TMP DP  RH WIND       PRES   REMARKS
TUCUMCARI      FAIR      81  40  23 CALM      29.93F
CANNON AFB     FAIR      83  38  20 SW9       29.99S
CLOVIS AIRPORT FAIR      83  49  30 SW7       29.98S

$$
NMZ028-029-538-261800-
SOUTHEAST PLAINS

CITY           SKY/WX    TMP DP  RH WIND       PRES   REMARKS
ROSWELL        FAIR      90  27  10 SW6       29.94F
ARTESIA        FAIR      93  32  11 SE6       29.94F
CARLSBAD       FAIR      91  37  15 VRB5      29.91F
HOBBS          SUNNY     91  37  15 SW5G12    29.96S


$$




USA.gov is the U.S. government's official web portal to all federal, state and local government web resources and services.